Date_Time,Julian_Date,Latitude,Longitude,Instrument_Depth,U,V,Speed,Direction
(yyyy-mm-dd hh:mn:ss UTC),(JD),(+ deg. North),(+ deg. East),(m),(cm/s),(cm/s),(cm/s),(deg True)
1987-04-06 01:00:00 UTC,2446891.541667,26.7400,-91.9950,0100,3.41,29.20,29.3984,6.6609
1987-04-06 01:30:00 UTC,2446891.562500,26.7400,-91.9950,0100,2.04,31.73,31.7955,3.6786
1987-04-06 02:00:00 UTC,2446891.583333,26.7400,-91.9950,0100,-1.17,28.78,28.8038,357.6720
1987-04-06 02:30:00 UTC,2446891.604167,26.7400,-91.9950,0100,-4.56,27.73,28.1024,350.6617
1987-04-06 03:00:00 UTC,2446891.625000,26.7400,-91.9950,0100,-5.44,27.16,27.6994,348.6738
1987-04-06 03:30:00 UTC,2446891.645833,26.7400,-91.9950,0100,-10.11,25.90,27.8033,338.6769
1987-04-06 04:00:00 UTC,2446891.666667,26.7400,-91.9950,0100,-12.61,27.88,30.5991,335.6630
1987-04-06 04:30:00 UTC,2446891.687500,26.7400,-91.9950,0100,-16.21,31.36,35.3018,332.6655
1987-04-06 05:00:00 UTC,2446891.708333,26.7400,-91.9950,0100,-4.38,29.88,30.1993,351.6606
1987-04-06 05:30:00 UTC,2446891.729167,26.7400,-91.9950,0100,0.38,32.10,32.1022,0.6782
1987-04-06 06:00:00 UTC,2446891.750000,26.7400,-91.9950,0100,7.39,32.88,33.7002,12.6671
1987-04-06 06:30:00 UTC,2446891.770833,26.7400,-91.9950,0100,9.08,32.35,33.6001,15.6784
1987-04-06 07:00:00 UTC,2446891.791667,26.7400,-91.9950,0100,10.74,30.04,31.9022,19.6732
1987-04-06 07:30:00 UTC,2446891.812500,26.7400,-91.9950,0100,9.44,31.52,32.9033,16.6726
1987-04-06 08:00:00 UTC,2446891.833333,26.7400,-91.9950,0100,8.13,33.43,34.4044,13.6687
1987-04-06 08:30:00 UTC,2446891.854167,26.7400,-91.9950,0100,7.44,36.04,36.7999,11.6641
1987-04-06 09:00:00 UTC,2446891.875000,26.7400,-91.9950,0100,6.48,38.05,38.5978,9.6649
1987-04-06 09:30:00 UTC,2446891.895833,26.7400,-91.9950,0100,8.38,37.27,38.2005,12.6720
1987-04-06 10:00:00 UTC,2446891.916667,26.7400,-91.9950,0100,5.89,38.65,39.0962,8.6648
1987-04-06 10:30:00 UTC,2446891.937500,26.7400,-91.9950,0100,4.67,39.93,40.2022,6.6707
1987-04-06 11:00:00 UTC,2446891.958333,26.7400,-91.9950,0100,8.56,41.43,42.3051,11.6738
1987-04-06 11:30:00 UTC,2446891.979167,26.7400,-91.9950,0100,10.69,40.82,42.1965,14.6751
1987-04-06 12:00:00 UTC,2446892.000000,26.7400,-91.9950,0100,7.59,40.29,40.9987,10.6686
1987-04-06 12:30:00 UTC,2446892.020833,26.7400,-91.9950,0100,6.50,38.15,38.6998,9.6692
1987-04-06 13:00:00 UTC,2446892.041667,26.7400,-91.9950,0100,7.63,40.49,41.2026,10.6718
1987-04-06 13:30:00 UTC,2446892.062500,26.7400,-91.9950,0100,5.41,40.14,40.5029,7.6760
1987-04-06 14:00:00 UTC,2446892.083333,26.7400,-91.9950,0100,6.89,40.42,41.0030,9.6737
1987-04-06 14:30:00 UTC,2446892.104167,26.7400,-91.9950,0100,9.85,40.52,41.7000,13.6630
1987-04-06 15:00:00 UTC,2446892.125000,26.7400,-91.9950,0100,8.56,41.43,42.3051,11.6738
1987-04-06 15:30:00 UTC,2446892.145833,26.7400,-91.9950,0100,8.39,40.64,41.4970,11.6647
1987-04-06 16:00:00 UTC,2446892.166667,26.7400,-91.9950,0100,6.84,40.12,40.6989,9.6752
1987-04-06 16:30:00 UTC,2446892.187500,26.7400,-91.9950,0100,10.97,39.09,40.6001,15.6759
1987-04-06 17:00:00 UTC,2446892.208333,26.7400,-91.9950,0100,10.32,36.78,38.2004,15.6734
1987-04-06 17:30:00 UTC,2446892.229167,26.7400,-91.9950,0100,10.07,35.91,37.2952,15.6647
1987-04-06 18:00:00 UTC,2446892.250000,26.7400,-91.9950,0100,11.38,35.73,37.4985,17.6667
1987-04-06 18:30:00 UTC,2446892.270833,26.7400,-91.9950,0100,10.56,33.16,34.8008,17.6644
1987-04-06 19:00:00 UTC,2446892.291667,26.7400,-91.9950,0100,9.58,32.00,33.4032,16.6664
1987-04-06 19:30:00 UTC,2446892.312500,26.7400,-91.9950,0100,7.74,34.44,35.2990,12.6661
1987-04-06 20:00:00 UTC,2446892.333333,26.7400,-91.9950,0100,8.94,34.15,35.3008,14.6700
1987-04-06 20:30:00 UTC,2446892.354167,26.7400,-91.9950,0100,9.70,34.57,35.9051,15.6736
1987-04-06 21:00:00 UTC,2446892.375000,26.7400,-91.9950,0100,9.84,32.86,34.3017,16.6704
1987-04-06 21:30:00 UTC,2446892.395833,26.7400,-91.9950,0100,9.93,33.15,34.6053,16.6755
1987-04-06 22:00:00 UTC,2446892.416667,26.7400,-91.9950,0100,7.02,33.98,34.6976,11.6726
1987-04-06 22:30:00 UTC,2446892.437500,26.7400,-91.9950,0100,8.70,31.00,32.1977,15.6765
1987-04-06 23:00:00 UTC,2446892.458333,26.7400,-91.9950,0100,9.83,29.08,30.6965,18.6770
1987-04-06 23:30:00 UTC,2446892.479167,26.7400,-91.9950,0100,9.83,29.08,30.6965,18.6770
1987-04-07 00:00:00 UTC,2446892.500000,26.7400,-91.9950,0100,8.63,28.83,30.0939,16.6646
1987-04-07 00:30:00 UTC,2446892.520833,26.7400,-91.9950,0100,12.30,30.95,33.3045,21.6736
1987-04-07 01:00:00 UTC,2446892.541667,26.7400,-91.9950,0100,8.97,31.97,33.2045,15.6728
1987-04-07 01:30:00 UTC,2446892.562500,26.7400,-91.9950,0100,10.21,34.10,35.5957,16.6684
1987-04-07 02:00:00 UTC,2446892.583333,26.7400,-91.9950,0100,13.09,36.63,38.8987,19.6647
1987-04-07 02:30:00 UTC,2446892.604167,26.7400,-91.9950,0100,8.03,35.71,36.6017,12.6731
1987-04-07 03:00:00 UTC,2446892.625000,26.7400,-91.9950,0100,4.13,35.36,35.6004,6.6619
1987-04-07 03:30:00 UTC,2446892.645833,26.7400,-91.9950,0100,2.91,35.68,35.7985,4.6626
1987-04-07 04:00:00 UTC,2446892.666667,26.7400,-91.9950,0100,0.42,35.70,35.7025,0.6740
1987-04-07 04:30:00 UTC,2446892.687500,26.7400,-91.9950,0100,-0.82,35.19,35.1996,358.6651
1987-04-07 05:00:00 UTC,2446892.708333,26.7400,-91.9950,0100,-5.20,35.52,35.8986,351.6713
1987-04-07 05:30:00 UTC,2446892.729167,26.7400,-91.9950,0100,-6.90,34.42,35.1048,348.6645
1987-04-07 06:00:00 UTC,2446892.750000,26.7400,-91.9950,0100,-5.22,35.62,36.0005,351.6628
1987-04-07 06:30:00 UTC,2446892.770833,26.7400,-91.9950,0100,-8.07,34.06,35.0030,346.6704
1987-04-07 07:00:00 UTC,2446892.791667,26.7400,-91.9950,0100,-10.09,34.45,35.8972,343.6753
1987-04-07 07:30:00 UTC,2446892.812500,26.7400,-91.9950,0100,-12.18,34.73,36.8039,340.6740
1987-04-07 08:00:00 UTC,2446892.833333,26.7400,-91.9950,0100,-12.89,34.79,37.1012,339.6699
1987-04-07 08:30:00 UTC,2446892.854167,26.7400,-91.9950,0100,-13.42,34.37,36.8971,338.6715
1987-04-07 09:00:00 UTC,2446892.875000,26.7400,-91.9950,0100,-13.03,31.73,34.3012,337.6744
1987-04-07 09:30:00 UTC,2446892.895833,26.7400,-91.9950,0100,-14.67,31.00,34.2959,334.6753
1987-04-07 10:00:00 UTC,2446892.916667,26.7400,-91.9950,0100,-15.90,29.49,33.5033,331.6680
1987-04-07 10:30:00 UTC,2446892.937500,26.7400,-91.9950,0100,-18.66,33.22,38.1020,330.6766
1987-04-07 11:00:00 UTC,2446892.958333,26.7400,-91.9950,0100,-20.70,32.70,38.7012,327.6651
1987-04-07 11:30:00 UTC,2446892.979167,26.7400,-91.9950,0100,-21.02,33.21,39.3032,327.6686
1987-04-07 12:00:00 UTC,2446893.000000,26.7400,-91.9950,0100,-22.58,34.34,41.0986,326.6734
1987-04-07 12:30:00 UTC,2446893.020833,26.7400,-91.9950,0100,-24.65,33.51,41.5998,323.6617
1987-04-07 13:00:00 UTC,2446893.041667,26.7400,-91.9950,0100,-24.23,34.18,41.8971,324.6674
1987-04-07 13:30:00 UTC,2446893.062500,26.7400,-91.9950,0100,-21.66,34.22,40.4989,327.6677
1987-04-07 14:00:00 UTC,2446893.083333,26.7400,-91.9950,0100,-21.99,39.14,44.8943,330.6714
1987-04-07 14:30:00 UTC,2446893.104167,26.7400,-91.9950,0100,-22.58,40.19,46.0987,330.6714
1987-04-07 15:00:00 UTC,2446893.125000,26.7400,-91.9950,0100,-20.94,42.30,47.1993,333.6630
1987-04-07 15:30:00 UTC,2446893.145833,26.7400,-91.9950,0100,-24.65,40.49,47.4032,328.6673
1987-04-07 16:00:00 UTC,2446893.166667,26.7400,-91.9950,0100,-22.63,43.80,49.3007,332.6761
1987-04-07 16:30:00 UTC,2446893.187500,26.7400,-91.9950,0100,-20.71,43.75,48.4042,334.6685
1987-04-07 17:00:00 UTC,2446893.208333,26.7400,-91.9950,0100,-18.85,45.88,49.6014,337.6645
1987-04-07 17:30:00 UTC,2446893.229167,26.7400,-91.9950,0100,-17.16,46.32,49.3964,339.6720
1987-04-07 18:00:00 UTC,2446893.250000,26.7400,-91.9950,0100,-18.69,45.51,49.1983,337.6731
1987-04-07 18:30:00 UTC,2446893.270833,26.7400,-91.9950,0100,-16.82,45.38,48.3969,339.6629
1987-04-07 19:00:00 UTC,2446893.291667,26.7400,-91.9950,0100,-14.03,44.96,47.0982,342.6692
1987-04-07 19:30:00 UTC,2446893.312500,26.7400,-91.9950,0100,-13.85,44.39,46.5005,342.6717
1987-04-07 20:00:00 UTC,2446893.333333,26.7400,-91.9950,0100,-13.90,41.96,44.2024,341.6716
1987-04-07 20:30:00 UTC,2446893.354167,26.7400,-91.9950,0100,-13.97,39.82,42.1994,340.6677
1987-04-07 21:00:00 UTC,2446893.375000,26.7400,-91.9950,0100,-13.62,36.76,39.2021,339.6698
1987-04-07 21:30:00 UTC,2446893.395833,26.7400,-91.9950,0100,-15.53,34.35,37.6975,335.6718
1987-04-07 22:00:00 UTC,2446893.416667,26.7400,-91.9950,0100,-16.81,33.97,37.9017,333.6716
1987-04-07 22:30:00 UTC,2446893.437500,26.7400,-91.9950,0100,-18.47,32.87,37.7038,330.6679
1987-04-07 23:00:00 UTC,2446893.458333,26.7400,-91.9950,0100,-21.21,32.25,38.5996,326.6681
1987-04-07 23:30:00 UTC,2446893.479167,26.7400,-91.9950,0100,-22.45,32.87,39.8050,325.6672
1987-04-08 00:00:00 UTC,2446893.500000,26.7400,-91.9950,0100,-22.96,32.39,39.7023,324.6687
1987-04-08 00:30:00 UTC,2446893.520833,26.7400,-91.9950,0100,-26.01,34.11,42.8954,322.6733
1987-04-08 01:00:00 UTC,2446893.541667,26.7400,-91.9950,0100,-26.19,35.61,44.2039,323.6667
1987-04-08 01:30:00 UTC,2446893.562500,26.7400,-91.9950,0100,-24.00,33.86,41.5030,324.6710
1987-04-08 02:00:00 UTC,2446893.583333,26.7400,-91.9950,0100,-24.58,34.67,42.4992,324.6645
1987-04-08 02:30:00 UTC,2446893.604167,26.7400,-91.9950,0100,-23.19,35.26,42.2024,326.6677
1987-04-08 03:00:00 UTC,2446893.625000,26.7400,-91.9950,0100,-23.42,33.04,40.4986,324.6696
1987-04-08 03:30:00 UTC,2446893.645833,26.7400,-91.9950,0100,-22.47,34.17,40.8961,326.6713
1987-04-08 04:00:00 UTC,2446893.666667,26.7400,-91.9950,0100,-24.27,29.63,38.3010,320.6790
1987-04-08 04:30:00 UTC,2446893.687500,26.7400,-91.9950,0100,-27.18,27.83,38.9007,315.6770
1987-04-08 05:00:00 UTC,2446893.708333,26.7400,-91.9950,0100,-27.94,25.76,38.0029,312.6753
1987-04-08 05:30:00 UTC,2446893.729167,26.7400,-91.9950,0100,-31.76,22.80,39.0965,305.6740
1987-04-08 06:00:00 UTC,2446893.750000,26.7400,-91.9950,0100,-31.58,24.38,39.8959,307.6684
1987-04-08 06:30:00 UTC,2446893.770833,26.7400,-91.9950,0100,-31.62,25.31,40.5021,308.6753
1987-04-08 07:00:00 UTC,2446893.791667,26.7400,-91.9950,0100,-30.40,25.22,39.4995,309.6793
1987-04-08 07:30:00 UTC,2446893.812500,26.7400,-91.9950,0100,-31.78,27.31,41.9023,310.6740
1987-04-08 08:00:00 UTC,2446893.833333,26.7400,-91.9950,0100,-34.10,28.28,44.3009,309.6698
1987-04-08 08:30:00 UTC,2446893.854167,26.7400,-91.9950,0100,-33.96,27.18,43.4975,308.6721
1987-04-08 09:00:00 UTC,2446893.875000,26.7400,-91.9950,0100,-32.57,28.99,43.6030,311.6717
1987-04-08 09:30:00 UTC,2446893.895833,26.7400,-91.9950,0100,-30.81,29.42,42.6004,313.6779
1987-04-08 10:00:00 UTC,2446893.916667,26.7400,-91.9950,0100,-33.45,28.74,44.1009,310.6689
1987-04-08 10:30:00 UTC,2446893.937500,26.7400,-91.9950,0100,-32.20,28.65,43.1006,311.6611
1987-04-08 11:00:00 UTC,2446893.958333,26.7400,-91.9950,0100,-32.94,29.32,44.0988,311.6724
1987-04-08 11:30:00 UTC,2446893.979167,26.7400,-91.9950,0100,-32.79,29.19,43.9003,311.6758
1987-04-08 12:00:00 UTC,2446894.000000,26.7400,-91.9950,0100,-32.50,29.96,44.2024,312.6713
1987-04-08 12:30:00 UTC,2446894.020833,26.7400,-91.9950,0100,-31.68,30.24,43.7959,313.6678
1987-04-08 13:00:00 UTC,2446894.041667,26.7400,-91.9950,0100,-30.79,30.44,43.2969,314.6725
1987-04-08 13:30:00 UTC,2446894.062500,26.7400,-91.9950,0100,-29.66,29.32,41.7058,314.6697
1987-04-08 14:00:00 UTC,2446894.083333,26.7400,-91.9950,0100,-28.02,28.68,40.0957,315.6669
1987-04-08 14:30:00 UTC,2446894.104167,26.7400,-91.9950,0100,-26.76,27.40,38.2996,315.6770
1987-04-08 15:00:00 UTC,2446894.125000,26.7400,-91.9950,0100,-27.10,28.73,39.4946,316.6723
1987-04-08 15:30:00 UTC,2446894.145833,26.7400,-91.9950,0100,-25.73,27.28,37.4997,316.6748
1987-04-08 16:00:00 UTC,2446894.166667,26.7400,-91.9950,0100,-24.01,28.28,37.0977,319.6684
1987-04-08 16:30:00 UTC,2446894.187500,26.7400,-91.9950,0100,-21.87,25.77,33.7993,319.6800
1987-04-08 17:00:00 UTC,2446894.208333,26.7400,-91.9950,0100,-21.03,24.78,32.5009,319.6798
1987-04-08 17:30:00 UTC,2446894.229167,26.7400,-91.9950,0100,-20.26,23.86,31.3012,319.6648
1987-04-08 18:00:00 UTC,2446894.250000,26.7400,-91.9950,0100,-19.22,21.85,29.1004,318.6641
1987-04-08 18:30:00 UTC,2446894.270833,26.7400,-91.9950,0100,-19.68,22.38,29.8021,318.6730
1987-04-08 19:00:00 UTC,2446894.291667,26.7400,-91.9950,0100,-19.49,19.26,27.4009,314.6599
1987-04-08 19:30:00 UTC,2446894.312500,26.7400,-91.9950,0100,-20.13,20.60,28.8024,315.6611
1987-04-08 20:00:00 UTC,2446894.333333,26.7400,-91.9950,0100,-17.51,19.22,26.0002,317.6655
1987-04-08 20:30:00 UTC,2446894.354167,26.7400,-91.9950,0100,-18.28,18.07,25.7038,314.6690
1987-04-08 21:00:00 UTC,2446894.375000,26.7400,-91.9950,0100,-18.81,17.95,26.0004,313.6598
1987-04-08 21:30:00 UTC,2446894.395833,26.7400,-91.9950,0100,-18.97,17.49,25.8023,312.6755
1987-04-08 22:00:00 UTC,2446894.416667,26.7400,-91.9950,0100,-19.24,15.96,24.9980,309.6765
1987-04-08 22:30:00 UTC,2446894.437500,26.7400,-91.9950,0100,-21.80,14.53,26.1985,303.6840
1987-04-08 23:00:00 UTC,2446894.458333,26.7400,-91.9950,0100,-22.05,14.69,26.4953,303.6721
1987-04-08 23:30:00 UTC,2446894.479167,26.7400,-91.9950,0100,-21.63,13.87,25.6950,302.6696
1987-04-09 00:00:00 UTC,2446894.500000,26.7400,-91.9950,0100,-22.59,12.87,25.9989,299.6711
1987-04-09 00:30:00 UTC,2446894.520833,26.7400,-91.9950,0100,-20.82,10.46,23.2999,296.6750
1987-04-09 01:00:00 UTC,2446894.541667,26.7400,-91.9950,0100,-20.54,9.43,22.6012,294.6601
1987-04-09 01:30:00 UTC,2446894.562500,26.7400,-91.9950,0100,-20.99,11.01,23.7023,297.6786
1987-04-09 02:00:00 UTC,2446894.583333,26.7400,-91.9950,0100,-20.19,10.59,22.7988,297.6778
1987-04-09 02:30:00 UTC,2446894.604167,26.7400,-91.9950,0100,-23.35,10.73,25.6974,294.6801
1987-04-09 03:00:00 UTC,2446894.625000,26.7400,-91.9950,0100,-24.36,10.68,26.5983,293.6738
1987-04-09 03:30:00 UTC,2446894.645833,26.7400,-91.9950,0100,-23.45,10.28,25.6043,293.6717
1987-04-09 04:00:00 UTC,2446894.666667,26.7400,-91.9950,0100,-23.33,9.27,25.1042,291.6700
1987-04-09 04:30:00 UTC,2446894.687500,26.7400,-91.9950,0100,-23.76,8.97,25.3968,290.6828
1987-04-09 05:00:00 UTC,2446894.708333,26.7400,-91.9950,0100,-23.48,8.86,25.0960,290.6736
1987-04-09 05:30:00 UTC,2446894.729167,26.7400,-91.9950,0100,-22.92,6.43,23.8049,285.6710
1987-04-09 06:00:00 UTC,2446894.750000,26.7400,-91.9950,0100,-21.28,5.57,21.9969,284.6680
1987-04-09 06:30:00 UTC,2446894.770833,26.7400,-91.9950,0100,-24.84,6.97,25.7994,285.6739
1987-04-09 07:00:00 UTC,2446894.791667,26.7400,-91.9950,0100,-24.44,8.26,25.7981,288.6737
1987-04-09 07:30:00 UTC,2446894.812500,26.7400,-91.9950,0100,-22.95,9.12,24.6957,291.6722
1987-04-09 08:00:00 UTC,2446894.833333,26.7400,-91.9950,0100,-23.25,9.71,25.1962,292.6671
1987-04-09 08:30:00 UTC,2446894.854167,26.7400,-91.9950,0100,-24.04,12.07,26.8999,296.6603
1987-04-09 09:00:00 UTC,2446894.875000,26.7400,-91.9950,0100,-24.04,12.07,26.8999,296.6603
1987-04-09 09:30:00 UTC,2446894.895833,26.7400,-91.9950,0100,-23.77,11.94,26.6003,296.6710
1987-04-09 10:00:00 UTC,2446894.916667,26.7400,-91.9950,0100,-21.98,11.04,24.5968,296.6692
1987-04-09 10:30:00 UTC,2446894.937500,26.7400,-91.9950,0100,-22.20,12.14,25.3026,298.6719
1987-04-09 11:00:00 UTC,2446894.958333,26.7400,-91.9950,0100,-18.85,13.53,23.2031,305.6697
1987-04-09 11:30:00 UTC,2446894.979167,26.7400,-91.9950,0100,-19.47,15.03,24.5964,307.6666
1987-04-09 12:00:00 UTC,2446895.000000,26.7400,-91.9950,0100,-17.72,14.18,22.6952,308.6677
1987-04-09 12:30:00 UTC,2446895.020833,26.7400,-91.9950,0100,-16.28,12.12,20.2961,306.6667
1987-04-09 13:00:00 UTC,2446895.041667,26.7400,-91.9950,0100,-19.71,15.22,24.9025,307.6752
1987-04-09 13:30:00 UTC,2446895.062500,26.7400,-91.9950,0100,-15.99,12.34,20.1979,307.6585
1987-04-09 14:00:00 UTC,2446895.083333,26.7400,-91.9950,0100,-16.24,13.47,21.0993,309.6735
1987-04-09 14:30:00 UTC,2446895.104167,26.7400,-91.9950,0100,-8.44,7.51,11.2975,311.6630
1987-04-09 15:00:00 UTC,2446895.125000,26.7400,-91.9950,0100,-9.67,9.56,13.5979,314.6722
1987-04-09 15:30:00 UTC,2446895.145833,26.7400,-91.9950,0100,-13.70,11.36,17.7972,309.6654
1987-04-09 16:00:00 UTC,2446895.166667,26.7400,-91.9950,0100,-7.92,7.05,10.6032,311.6739
1987-04-09 16:30:00 UTC,2446895.187500,26.7400,-91.9950,0100,-6.93,5.75,9.0049,309.6834
1987-04-09 17:00:00 UTC,2446895.208333,26.7400,-91.9950,0100,-6.73,5.19,8.4988,307.6385
1987-04-09 17:30:00 UTC,2446895.229167,26.7400,-91.9950,0100,-7.85,6.51,10.1982,309.6689
1987-04-09 18:00:00 UTC,2446895.250000,26.7400,-91.9950,0100,-10.99,8.18,13.7001,306.6608
1987-04-09 18:30:00 UTC,2446895.270833,26.7400,-91.9950,0100,-7.92,6.11,10.0029,307.6489
1987-04-09 19:00:00 UTC,2446895.291667,26.7400,-91.9950,0100,-8.08,6.70,10.4965,309.6658
1987-04-09 19:30:00 UTC,2446895.312500,26.7400,-91.9950,0100,-8.50,6.33,10.5981,306.6753
1987-04-09 20:00:00 UTC,2446895.333333,26.7400,-91.9950,0100,-5.86,4.69,7.5057,308.6717
1987-04-09 20:30:00 UTC,2446895.354167,26.7400,-91.9950,0100,-8.82,6.57,10.9981,306.6823
1987-04-09 21:00:00 UTC,2446895.375000,26.7400,-91.9950,0100,-5.92,4.10,7.2011,304.7052
1987-04-09 21:30:00 UTC,2446895.395833,26.7400,-91.9950,0100,1.40,-0.11,1.4043,94.4926
1987-04-09 22:00:00 UTC,2446895.416667,26.7400,-91.9950,0100,8.43,-2.52,8.7986,106.6431
1987-04-09 22:30:00 UTC,2446895.437500,26.7400,-91.9950,0100,-0.71,0.84,1.0999,319.7943
1987-04-09 23:00:00 UTC,2446895.458333,26.7400,-91.9950,0100,2.97,-0.45,3.0039,98.6156
1987-04-09 23:30:00 UTC,2446895.479167,26.7400,-91.9950,0100,4.36,-0.59,4.3997,97.7065
1987-04-10 00:00:00 UTC,2446895.500000,26.7400,-91.9950,0100,-2.57,0.82,2.6976,287.6961
1987-04-10 00:30:00 UTC,2446895.520833,26.7400,-91.9950,0100,2.26,0.41,2.2969,79.7175
1987-04-10 01:00:00 UTC,2446895.541667,26.7400,-91.9950,0100,-3.33,0.69,3.4007,281.7065
1987-04-10 01:30:00 UTC,2446895.562500,26.7400,-91.9950,0100,-5.18,0.42,5.1970,274.6355
1987-04-10 02:00:00 UTC,2446895.583333,26.7400,-91.9950,0100,-5.99,0.28,5.9965,272.6763
1987-04-10 02:30:00 UTC,2446895.604167,26.7400,-91.9950,0100,-10.68,-0.62,10.6980,266.6776
1987-04-10 03:00:00 UTC,2446895.625000,26.7400,-91.9950,0100,-5.00,-0.03,5.0001,269.6562
1987-04-10 03:30:00 UTC,2446895.645833,26.7400,-91.9950,0100,-12.57,-1.84,12.7040,261.6722
1987-04-10 04:00:00 UTC,2446895.666667,26.7400,-91.9950,0100,-5.99,0.28,5.9965,272.6763
1987-04-10 04:30:00 UTC,2446895.687500,26.7400,-91.9950,0100,-14.98,-1.93,15.1038,262.6585
1987-04-10 05:00:00 UTC,2446895.708333,26.7400,-91.9950,0100,-11.47,-0.87,11.5029,265.6624
1987-04-10 05:30:00 UTC,2446895.729167,26.7400,-91.9950,0100,-14.54,-1.36,14.6035,264.6564
1987-04-10 06:00:00 UTC,2446895.750000,26.7400,-91.9950,0100,-23.58,-0.96,23.5995,267.6686
1987-04-10 06:30:00 UTC,2446895.770833,26.7400,-91.9950,0100,-19.18,-0.78,19.1959,267.6712
1987-04-10 07:00:00 UTC,2446895.791667,26.7400,-91.9950,0100,-20.54,-1.56,20.5992,265.6568
1987-04-10 07:30:00 UTC,2446895.812500,26.7400,-91.9950,0100,-21.13,-2.72,21.3043,262.6649
1987-04-10 08:00:00 UTC,2446895.833333,26.7400,-91.9950,0100,-19.54,-2.51,19.7006,262.6802
1987-04-10 08:30:00 UTC,2446895.854167,26.7400,-91.9950,0100,-15.69,-0.64,15.7030,267.6642
1987-04-10 09:00:00 UTC,2446895.875000,26.7400,-91.9950,0100,-8.38,0.54,8.3974,273.6870
1987-04-10 09:30:00 UTC,2446895.895833,26.7400,-91.9950,0100,-13.02,3.17,13.4003,283.6837
1987-04-10 10:00:00 UTC,2446895.916667,26.7400,-91.9950,0100,-10.83,3.24,11.3043,286.6555
1987-04-10 10:30:00 UTC,2446895.937500,26.7400,-91.9950,0100,-14.29,4.55,14.9969,287.6617
1987-04-10 11:00:00 UTC,2446895.958333,26.7400,-91.9950,0100,-6.06,3.89,7.2011,302.6970
1987-04-10 11:30:00 UTC,2446895.979167,26.7400,-91.9950,0100,-8.77,6.30,10.7983,305.6919
1987-04-10 12:00:00 UTC,2446896.000000,26.7400,-91.9950,0100,-8.89,9.76,13.2019,317.6708
1987-04-10 12:30:00 UTC,2446896.020833,26.7400,-91.9950,0100,-8.97,8.56,12.3990,313.6602
1987-04-10 13:00:00 UTC,2446896.041667,26.7400,-91.9950,0100,-5.39,7.33,9.0984,323.6717
1987-04-10 13:30:00 UTC,2446896.062500,26.7400,-91.9950,0100,-4.73,6.20,7.7983,322.6599
1987-04-10 14:00:00 UTC,2446896.083333,26.7400,-91.9950,0100,-5.30,8.71,10.1958,328.6797
1987-04-10 14:30:00 UTC,2446896.104167,26.7400,-91.9950,0100,-4.68,6.61,8.0990,324.7008
1987-04-10 15:00:00 UTC,2446896.125000,26.7400,-91.9950,0100,-1.76,3.14,3.5996,330.7289
1987-04-10 15:30:00 UTC,2446896.145833,26.7400,-91.9950,0100,-2.05,4.34,4.7998,334.7163
1987-04-10 16:00:00 UTC,2446896.166667,26.7400,-91.9950,0100,-2.17,2.75,3.5031,321.7234
1987-04-10 16:30:00 UTC,2446896.187500,26.7400,-91.9950,0100,-1.29,1.52,1.9936,319.6793
1987-04-10 17:00:00 UTC,2446896.208333,26.7400,-91.9950,0100,0.19,-0.23,0.2983,140.4403
1987-04-10 17:30:00 UTC,2446896.229167,26.7400,-91.9950,0100,-1.62,2.76,3.2003,329.5889
1987-04-10 18:00:00 UTC,2446896.250000,26.7400,-91.9950,0100,-2.30,3.63,4.2973,327.6413
1987-04-10 18:30:00 UTC,2446896.270833,26.7400,-91.9950,0100,0.20,-0.02,0.2010,95.7106
1987-04-10 19:00:00 UTC,2446896.291667,26.7400,-91.9950,0100,1.85,-1.96,2.6952,136.6537
1987-04-10 19:30:00 UTC,2446896.312500,26.7400,-91.9950,0100,0.34,-0.21,0.3996,121.7014
1987-04-10 20:00:00 UTC,2446896.333333,26.7400,-91.9950,0100,-3.38,-1.74,3.8016,242.7609
1987-04-10 20:30:00 UTC,2446896.354167,26.7400,-91.9950,0100,0.02,0.20,0.2010,5.7106
1987-04-10 21:00:00 UTC,2446896.375000,26.7400,-91.9950,0100,-2.87,-3.34,4.4037,220.6719
1987-04-10 21:30:00 UTC,2446896.395833,26.7400,-91.9950,0100,1.63,2.87,3.3006,29.5942
1987-04-10 22:00:00 UTC,2446896.416667,26.7400,-91.9950,0100,-0.34,0.83,0.8969,337.7241
1987-04-10 22:30:00 UTC,2446896.437500,26.7400,-91.9950,0100,-1.55,-2.09,2.6020,216.5616
1987-04-10 23:00:00 UTC,2446896.458333,26.7400,-91.9950,0100,-1.91,-1.62,2.5045,229.6965
1987-04-10 23:30:00 UTC,2446896.479167,26.7400,-91.9950,0100,-3.01,-1.98,3.6028,236.6628
1987-04-11 00:00:00 UTC,2446896.500000,26.7400,-91.9950,0100,-6.12,-4.34,7.5027,234.6576
1987-04-11 00:30:00 UTC,2446896.520833,26.7400,-91.9950,0100,-5.16,-3.79,6.4023,233.7029
1987-04-11 01:00:00 UTC,2446896.541667,26.7400,-91.9950,0100,-7.27,-4.96,8.8008,235.6960
1987-04-11 01:30:00 UTC,2446896.562500,26.7400,-91.9950,0100,0.90,0.94,1.3014,43.7546
1987-04-11 02:00:00 UTC,2446896.583333,26.7400,-91.9950,0100,-1.63,-0.48,1.6992,253.5914
1987-04-11 02:30:00 UTC,2446896.604167,26.7400,-91.9950,0100,1.11,1.29,1.7018,40.7108
1987-04-11 03:00:00 UTC,2446896.625000,26.7400,-91.9950,0100,4.53,1.24,4.6966,74.6914
1987-04-11 03:30:00 UTC,2446896.645833,26.7400,-91.9950,0100,2.00,0.05,2.0006,88.5679
1987-04-11 04:00:00 UTC,2446896.666667,26.7400,-91.9950,0100,-2.53,0.61,2.6025,283.5557
1987-04-11 04:30:00 UTC,2446896.687500,26.7400,-91.9950,0100,-3.39,0.89,3.5049,284.7103
1987-04-11 05:00:00 UTC,2446896.708333,26.7400,-91.9950,0100,-8.43,2.85,8.8987,288.6793
1987-04-11 05:30:00 UTC,2446896.729167,26.7400,-91.9950,0100,-8.81,2.98,9.3003,288.6882
1987-04-11 06:00:00 UTC,2446896.750000,26.7400,-91.9950,0100,-13.19,0.61,13.2041,272.6479
1987-04-11 06:30:00 UTC,2446896.770833,26.7400,-91.9950,0100,-13.80,0.16,13.8009,270.6643
1987-04-11 07:00:00 UTC,2446896.791667,26.7400,-91.9950,0100,-21.18,5.94,21.9972,285.6663
1987-04-11 07:30:00 UTC,2446896.812500,26.7400,-91.9950,0100,-22.07,7.46,23.2967,288.6761
1987-04-11 08:00:00 UTC,2446896.833333,26.7400,-91.9950,0100,-18.48,4.84,19.1033,284.6764
1987-04-11 08:30:00 UTC,2446896.854167,26.7400,-91.9950,0100,-22.73,5.95,23.4959,284.6691
1987-04-11 09:00:00 UTC,2446896.875000,26.7400,-91.9950,0100,-22.24,5.00,22.7951,282.6706
1987-04-11 09:30:00 UTC,2446896.895833,26.7400,-91.9950,0100,-20.22,5.67,20.9999,285.6643
1987-04-11 10:00:00 UTC,2446896.916667,26.7400,-91.9950,0100,-20.31,4.94,20.9021,283.6706
1987-04-11 10:30:00 UTC,2446896.937500,26.7400,-91.9950,0100,-6.46,2.70,7.0015,292.6828
1987-04-11 11:00:00 UTC,2446896.958333,26.7400,-91.9950,0100,-6.32,3.45,7.2003,298.6295
1987-04-11 11:30:00 UTC,2446896.979167,26.7400,-91.9950,0100,-10.55,3.77,11.2034,289.6642
1987-04-11 12:00:00 UTC,2446897.000000,26.7400,-91.9950,0100,-15.35,5.49,16.3022,289.6798
1987-04-11 12:30:00 UTC,2446897.020833,26.7400,-91.9950,0100,-11.08,3.75,11.6974,288.6983
1987-04-11 13:00:00 UTC,2446897.041667,26.7400,-91.9950,0100,-13.01,5.43,14.0977,292.6543